Weather History for Jackson, MS

Change the Weather History Date:

Tuesday, March 19, 2013

  Actual Average Record
Temperature  
Mean Temperature 58 °F 58 °F  
Max Temperature 70 °F 69 °F 88 °F (1982)
Min Temperature 45 °F 46 °F 25 °F (1923)
Degree Days  
Heating Degree Days 7 8  
Month to date heating degree days 240 194  
Since 1 July heating degree days 1991 2186  
Cooling Degree Days 0 1  
Month to date cooling degree days 3 16  
Year to date cooling degree days 17 26  
Growing Degree Days 8 (Base 50)    
Moisture  
Dew Point 38 °F    
Average Humidity 57    
Maximum Humidity 89    
Minimum Humidity 25    
Precipitation  
Precipitation 0.00 in 0.16 in 5.00 in (1906)
Month to date precipitation 3.67 3.05  
Year to date precipitation 21.11 12.78  
Sea Level Pressure  
Sea Level Pressure 30.05 in    
Wind  
Wind Speed 7 mph (NE)    
Max Wind Speed 16 mph    
Max Gust Speed 23 mph    
Visibility 10 miles    
Events      
T = Trace of Precipitation, MM = Missing Value Source: NWS Daily Summary

Daily Weather History Graph

Daily Weather History Graph

Search for Another Location

Airport:

Trip Planner

Search our weather history database for the weather conditions in past years. The results will help you decide how hot, cold, wet, or windy it might be!

Date:

Astronomy

Mar. 19, 2013 Rise Set
Actual Time 7:05 AM CDT 7:11 PM CDT
Civil Twilight 6:40 AM CDT 7:35 PM CDT
Nautical Twilight 6:12 AM CDT 8:04 PM CDT
Astronomical Twilight 5:43 AM CDT 8:33 PM CDT
Moon 12:13 PM CDT 1:39 AM CDT
Length of Visible Light 12h 55m
Length of Day
12h 06m
Waxing Crescent, 50% of the Moon is Illuminated
Mar 19
Waxing Crescent
Mar 19
First Quarter
Mar 27
Full
Apr 2
Last Quarter
Apr 10
New

Hourly Weather History & Observations

Time (CDT) Temp. Windchill Dew Point Humidity Pressure Visibility Wind Dir Wind Speed Gust Speed Precip Events Conditions
12:54 AM 52.0 °F - 46.9 °F 83% 30.01 in 10.0 mi North 12.7 mph - N/A   Clear
1:54 AM 51.1 °F - 46.0 °F 83% 30.03 in 10.0 mi NNE 10.4 mph - N/A   Clear
2:54 AM 50.0 °F - 45.0 °F 83% 30.04 in 10.0 mi NNE 10.4 mph 20.7 mph N/A   Clear
3:54 AM 48.9 °F - 44.1 °F 83% 30.05 in 10.0 mi NNE 8.1 mph 17.3 mph N/A   Clear
4:54 AM 48.0 °F - 43.0 °F 83% 30.06 in 10.0 mi NE 6.9 mph - N/A   Clear
5:54 AM 46.0 °F 43.9 °F 42.1 °F 86% 30.05 in 10.0 mi ENE 4.6 mph - N/A   Clear
6:54 AM 45.0 °F 42.6 °F 41.0 °F 86% 30.05 in 10.0 mi ENE 4.6 mph - N/A   Clear
7:54 AM 46.9 °F - 39.9 °F 77% 30.06 in 10.0 mi ENE 3.5 mph - N/A   Clear
8:54 AM 50.0 °F - 39.0 °F 66% 30.07 in 10.0 mi East 9.2 mph - N/A   Clear
9:54 AM 55.0 °F - 35.1 °F 47% 30.09 in 10.0 mi East 6.9 mph - N/A   Clear
10:54 AM 57.9 °F - 35.1 °F 42% 30.11 in 10.0 mi NNE 8.1 mph - N/A   Partly Cloudy
11:54 AM 61.0 °F - 35.1 °F 38% 30.12 in 10.0 mi NNE 8.1 mph - N/A   Clear
12:54 PM 63.0 °F - 36.0 °F 37% 30.10 in 10.0 mi North 8.1 mph - N/A   Clear
1:54 PM 66.0 °F - 32.0 °F 28% 30.08 in 10.0 mi ENE 8.1 mph - N/A   Clear
2:54 PM 68.0 °F - 34.0 °F 28% 30.05 in 10.0 mi NNE 6.9 mph 16.1 mph N/A   Clear
3:54 PM 70.0 °F - 32.0 °F 25% 30.02 in 10.0 mi NNE 9.2 mph - N/A   Clear
4:54 PM 70.0 °F - 32.0 °F 25% 30.01 in 10.0 mi Variable 5.8 mph - N/A   Clear
5:54 PM 66.9 °F - 30.9 °F 26% 30.02 in 10.0 mi NE 5.8 mph - N/A   Clear
6:54 PM 64.0 °F - 34.0 °F 33% 30.02 in 10.0 mi NE 4.6 mph - N/A   Clear
7:54 PM 61.0 °F - 36.0 °F 39% 30.03 in 10.0 mi NE 5.8 mph - N/A   Clear
8:54 PM 59.0 °F - 34.0 °F 39% 30.05 in 10.0 mi ENE 4.6 mph - N/A   Clear
9:54 PM 57.9 °F - 35.1 °F 42% 30.06 in 10.0 mi NE 6.9 mph - N/A   Clear
10:54 PM 55.9 °F - 35.1 °F 45% 30.07 in 10.0 mi NNE 8.1 mph - N/A   Clear
11:54 PM 55.9 °F - 35.1 °F 45% 30.07 in 10.0 mi NE 8.1 mph - N/A   Clear